Location: O'Brien
(30.0517°N, 82.9900°W)
Time: 03:39:02
(UTC-04:00)

Hubble Space Telescope - Visible Passes

Search period start: 21 October 2019 00:00
Search period end: 31 October 2019 00:00
Orbit: 536 x 540 km, 28.5° (Epoch: 20 October)

Date Brightness Start Highest point End Pass type
(mag) Time Alt. Az. Time Alt. Az. Time Alt. Az.
26 Oct 3.6 05:58:22 10° SSE 05:59:02 10° SSE 05:59:44 10° SE visible
27 Oct 3.3 05:47:15 12° S 05:48:22 14° SSE 05:50:28 10° ESE visible
28 Oct 3.1 05:37:44 17° SSE 05:37:44 17° SSE 05:40:28 10° ESE visible
28 Oct 1.6 07:14:33 10° WSW 07:18:31 46° SSE 07:22:29 10° E visible
29 Oct 3.1 05:28:07 19° SE 05:28:07 19° SE 05:30:14 10° ESE visible
29 Oct 1.4 07:03:54 10° WSW 07:07:56 53° S 07:11:57 10° E visible
30 Oct 3.3 05:18:25 18° ESE 05:18:25 18° ESE 05:19:54 10° ESE visible
30 Oct 1.1 06:53:46 13° WSW 06:57:20 60° S 07:01:24 10° E visible
